Location: Badlands Tank
(34.7185°N, 107.0376°W)
Time: 22:33:42
(UTC+00:00)

Atlas Centaur 2 - Visible Passes

Search period start: 18 November 2025 00:00
Search period end: 28 November 2025 00:00
Orbit: 456 x 1251 km, 30.4° (Epoch: 17 November)

Date Brightness Start Highest point End Pass type
(mag) Time Alt. Az. Time Alt. Az. Time Alt. Az.
18 Nov 4.9 11:20:36 10° SSW 11:25:39 18° SSE 11:30:21 10° ESE visible
18 Nov 3.9 13:07:01 10° SW 13:13:58 39° SSE 13:19:51 10° E visible
19 Nov 4.7 11:07:24 13° S 11:11:56 21° SSE 11:17:14 10° ESE visible
19 Nov 3.8 12:53:04 10° SW 13:00:20 43° SSE 13:06:31 10° E visible
20 Nov 4.6 10:55:26 20° S 10:58:12 24° SSE 11:04:00 10° ESE visible
20 Nov 3.6 12:39:07 10° SW 12:46:39 46° SSE 12:53:08 10° E visible
21 Nov 4.4 10:43:17 26° SSE 10:44:26 27° SSE 10:50:39 10° E visible
21 Nov 3.5 12:25:16 10° WSW 12:32:56 50° SSE 12:39:41 10° E visible
22 Nov 4.3 10:30:59 29° SSE 10:30:59 29° SSE 10:37:12 10° E visible
22 Nov 3.4 12:12:58 17° WSW 12:19:12 53° SSE 12:26:12 10° E visible
23 Nov 4.3 10:18:34 30° SE 10:18:34 30° SE 10:23:42 10° E visible
23 Nov 3.4 12:00:32 25° SW 12:05:25 56° S 12:12:39 10° E visible
24 Nov 4.5 10:06:01 27° ESE 10:06:01 27° ESE 10:10:07 10° E visible
24 Nov 3.3 11:47:59 34° SW 11:51:38 58° S 11:59:05 10° E visible
25 Nov 4.8 09:53:23 23° ESE 09:53:23 23° ESE 09:56:28 10° E visible
25 Nov 3.2 11:35:20 44° SW 11:37:49 61° S 11:45:27 10° E visible
25 Nov 3.3 13:18:42 10° W 13:26:42 61° S 13:33:42 10° ESE visible
26 Nov 5.0 09:40:41 19° E 09:40:41 19° E 09:42:46 10° E visible
26 Nov 3.1 11:22:37 55° SSW 11:23:59 62° S 11:31:47 10° E visible
26 Nov 3.3 13:04:52 10° W 13:12:54 60° S 13:20:06 10° ESE visible
27 Nov 5.3 09:27:54 14° E 09:27:54 14° E 09:29:01 10° E visible
27 Nov 3.1 11:09:51 63° S 11:10:09 64° S 11:18:04 10° E visible
27 Nov 3.3 12:51:48 13° W 12:59:04 59° S 13:06:26 10° ESE visible
